カタログに戻る

SL-12 DEB

LostHEO
NORAD 41685·DEBRIS·🇷🇺 Russia

打ち上げ Oct 26, 2007 から Baikonur Cosmodrome

Loading…

次のパス (今後24時間)

TLE

古いSource: Space-Track

元期: Apr 29, 2017, 20:23 UTC

1 41685U 07052S   17119.84992220  .00139778  00000-0  15508+0 0  9996
2 41685  65.5856  48.6697 5740693  25.1740 354.2496  4.30467895 41457

AllMySatでSL-12 DEBをリアルタイム追跡

Download on the App Store